This demonstration page uses our WeatherBlox Daily Observations layout. Learn more.

38.89511, -77.03637

Hourly Observations for June 13, 2015

Temp ( °F °C ) Dew Point ( °F °C ) Humidity (%) Winds ( mph kmh ) Pressure ( in mb ) Visibility ( mi km ) Precip ( " mm )
12:52 am 00:52 Mostly Cloudy 78 25.6 71 21.7 79 79 SSW 3 6 29.92 1013 10 16.0934 0 0
1:52 am 01:52 Clear 78 25.6 71 21.7 79 79 S 3 6 29.92 1013 10 16.0934 0 0
2:52 am 02:52 Partly Cloudy 78 25.6 70 21.1 76 76 SW 3 6 29.91 1013 10 16.0934 0 0
3:52 am 03:52 Partly Cloudy 77 25 71 21.7 82 82 SSW 7 11 29.92 1013 10 16.0934 0 0
4:52 am 04:52 Mostly Cloudy 76 24.4 70 21.1 82 82 SSW 5 7 29.92 1013 10 16.0934 0 0
5:52 am 05:52 Cloudy 75 23.9 70 21.1 84 84 SSW 3 6 29.93 1014 10 16.0934 0 0
6:52 am 06:52 Cloudy 77 25 70 21.1 79 79 Calm 29.96 1014 10 16.0934 0 0
7:52 am 07:52 Mostly Cloudy 81 27.2 71 21.7 72 72 Calm 29.97 1015 10 16.0934 0 0
8:52 am 08:52 Mostly Cloudy 83 28.3 72 22.2 70 70 VRB 5 7 29.98 1015 10 16.0934 0 0
9:52 am 09:52 Mostly Cloudy 85 29.4 70 21.1 61 61 NW 9 15 30 1016 10 16.0934 0 0
10:52 am 10:52 Mostly Cloudy 87 30.6 70 21.1 57 57 NW 9 15 30.01 1016 10 16.0934 0 0
11:52 am 11:52 Mostly Cloudy 89 31.7 71 21.7 55 55 NNW 13 20 30.01 1016 10 16.0934 0 0
12:52 pm 12:52 Mostly Cloudy 89 31.7 70 21.1 53 53 NNW 13 20 30.02 1017 10 16.0934 0 0
1:52 pm 13:52 Mostly Cloudy 88 31.1 70 21.1 55 55 NNW 14 22 30.02 1017 10 16.0934 0 0
2:52 pm 14:52 Mostly Cloudy 90 32.2 71 21.7 54 54 N 7 11 30 1016 10 16.0934 0 0
3:52 pm 15:52 Mostly Cloudy 89 31.7 70 21.1 53 53 NNW 14 22 29.98 1015 10 16.0934 0 0
4:52 pm 16:52 Mostly Cloudy 90 32.2 69 20.6 50 50 WNW 8 13 29.96 1015 10 16.0934 0 0
5:52 pm 17:52 Mostly Cloudy 89 31.7 71 21.7 55 55 N 10 17 29.98 1015 10 16.0934 0 0
6:52 pm 18:52 Partly Cloudy 89 31.7 71 21.7 55 55 NNW 7 11 29.98 1015 10 16.0934 0 0
7:52 pm 19:52 Partly Cloudy 89 31.7 68 20 50 50 W 6 9 29.99 1016 10 16.0934 0 0
8:52 pm 20:52 Partly Cloudy 87 30.6 67 19.4 51 51 WNW 6 9 30 1016 10 16.0934 0 0
9:52 pm 21:52 Partly Cloudy 87 30.6 67 19.4 51 51 Calm 30.01 1016 10 16.0934 0 0
10:52 pm 22:52 Mostly Cloudy 83 28.3 72 22.2 70 70 Calm 30.01 1016 10 16.0934 0 0
11:52 pm 23:52 Cloudy 84 28.9 71 21.7 65 65 Calm 30.01 1016 10 16.0934 0 0

Powered by AerisWeather